This is the latest recevied weather packets stored in our database for station/object KO4RJX-11. If no packets are shown the sender has not sent any weather packets the latest 10 day(s).
| Time | Temp. | Humidity | Pressure | Rain* | Wind** | Luminosity | Snow |
|---|---|---|---|---|---|---|---|
| 1777525992 | 17.78° C | 99% | 1003.9 hPa | 3.56 mm | - | - | - |
| 1777525592 | 17.78° C | 99% | 1003.9 hPa | 3.56 mm | - | - | - |
| 1777524393 | 18.33° C | 96% | 1004.2 hPa | 3.56 mm | - | - | - |
| 1777522792 | 18.89° C | 92% | 1004.2 hPa | 3.3 mm | - | - | - |
| 1777519991 | 20.56° C | 81% | 1002.8 hPa | 0 mm | - | - | - |
| 1777519725 | 20.56° C | 81% | 1002.8 hPa | 0 mm | - | - | - |
| 1777517991 | 21.11° C | 79% | 1003.2 hPa | 0 mm | - | - | - |
| 1777515991 | 21.11° C | 76% | 1002.8 hPa | 0 mm | - | - | - |
| 1777510791 | 21.11° C | 75% | 1002.8 hPa | 0 mm | - | - | - |
| 1777508391 | 20.56° C | 78% | 1002.8 hPa | 0 mm | - | - | - |
| 1777506392 | 22.22° C | 72% | 1002.5 hPa | 0 mm | - | - | - |
| 1777505191 | 22.78° C | 67% | 1002.5 hPa | 0 mm | - | - | - |
| 1777504392 | 22.78° C | 67% | 1002.5 hPa | 0 mm | - | - | - |
| 1777501591 | 23.33° C | 66% | 1002.8 hPa | 0 mm | - | - | - |
| 1777501323 | 23.33° C | 65% | 1002.8 hPa | 0 mm | - | - | - |
| 1777499192 | 23.33° C | 62% | 1002.8 hPa | 0 mm | - | - | - |
| 1777498791 | 23.89° C | 62% | 1002.8 hPa | 0 mm | - | - | - |
| 1777498392 | 23.89° C | 62% | 1002.8 hPa | 0 mm | - | - | - |
| 1777498123 | 23.33° C | 64% | 1003.2 hPa | 0 mm | - | - | - |
| 1777493591 | 22.78° C | 66% | 1004.2 hPa | 0 mm | - | - | - |
| 1777492791 | 22.22° C | 68% | 1004.5 hPa | 0 mm | - | - | - |
| 1777492391 | 22.22° C | 67% | 1004.5 hPa | 0 mm | - | - | - |
| 1777492123 | 22.22° C | 67% | 1004.5 hPa | 0 mm | - | - | - |
| 1777490392 | 21.67° C | 69% | 1004.9 hPa | 0 mm | - | - | - |
| 1777489991 | 22.22° C | 67% | 1005.2 hPa | 0 mm | - | - | - |
* Rain since midnight (hover to see other rain measurements)
** Current wind speed in m/s (hover to see current wind gust speed)